Location: Carbonear
(47.7333°N, 53.2500°W)
Time: 02:54:44
(UTC+00:00)

XW-2D - Pass Details

Date: 06 December 2022
Orbit: 489 x 502 km, 97.5° (Epoch: 28 January)

Event Time Altitude Azimuth Distance (km) Brightness Sun altitude
Rises 20:53:37 0° 171° (S) 2,580 ? -11.6°
Reaches altitude 10° 20:55:42 10° 173° (S) 1,698 ? -11.9°
Maximum altitude 20:59:20 71° 257° (WSW) 530 ? -12.5°
Drops below altitude 10° 21:03:00 10° 343° (NNW) 1,701 ? -13.1°
Sets 21:05:05 0° 346° (NNW) 2,586 ? -13.4°
